Hourly Data Report for October 01, 2019

All times are specified in Local Standard Time (LST). Add 1 hour to adjust for Daylight Saving Time where and when it is observed.

CORAL HARBOUR A
NUNAVUT
Current Station Operator: NAVCAN

64°11'36.000" N
83°21'34.000" W
62.20 m
2301002
71915
YZS

Download Data

Hourly Data (October 2019)
Hourly Data Report for October 1, 2019
TIME Temp Definition
°C
Dew Point Definition
°C
Rel Hum Definition
%
Wind Dir Definition
10's deg

Wind Spd Definition
km/h
Visibility Definition
km
Stn Press Definition
kPa
Hmdx Definition


Wind Chill Definition


Weather Definition


00:00 -1.5 -3.9 84 34 27 24.1 100.85   -8 LegendNANA
01:00 -2.1 -4.8 82 35 25 24.1 100.88   -9 Mostly Cloudy
02:00 -2.4 -5.2 81 33 28 24.1 100.89   -9 LegendNANA
03:00 -2.7 -5.4 82 35 28 24.1 100.94   -10 LegendNANA
04:00 -3.1 -5.8 81 35 17 24.1 100.94   -9 Mostly Cloudy
05:00 -3.3 -5.8 83 33 18 24.1 100.93   -9 LegendNANA
06:00 -3.9 -6.6 82 33 27 24.1 100.92   -11 LegendNANA
07:00 -4.2 -7.0 81 33 27 24.1 100.93   -12 Mostly Cloudy
08:00 -4.0 -6.9 81 34 30 24.1 100.92   -12 LegendNANA
09:00 -3.9 -7.0 79 35 25 24.1 100.90   -11 LegendNANA
10:00 -3.2 -6.5 78 33 15 24.1 100.90   -8 Mostly Cloudy
11:00 -2.8 -6.3 77 36 14 24.1 100.91   -8 LegendNANA
12:00 -2.5 -6.4 75 32 19 24.1 100.89   -8 LegendNANA
13:00 -2.1 -6.3 73 33 13 24.1 100.87   -7 Mostly Cloudy
14:00 -1.1 -5.7 71 32 8 24.1 100.86   -4 LegendNANA
15:00 -0.4 -5.8 67 33 17 24.1 100.83   -5 LegendNANA
16:00 -0.8 -5.7 69 32 16 24.1 100.83   -6 Mainly Clear
17:00 -1.1 -5.8 70 32 16 24.1 100.81   -6 LegendNANA
18:00 -1.4 -5.2 76 32 14 24.1 100.79   -6 LegendNANA
19:00 -3.1 -4.9 88 30 8 24.1 100.79   -6 Mainly Clear
20:00 -3.5 -5.0 89 29 10 24.1 100.78   -7 LegendNANA
21:00 -3.9 -5.2 90 31 11 24.1 100.76   -8 LegendNANA
22:00 -4.1 -5.5 90 33 3 24.1 100.75   -5 Clear
23:00 -4.2 -5.8 89 34 13 24.1 100.71   -9 LegendNANA

Notes on Data Quality.

Legend

  • E = Estimated
  • M = Missing
  • NA = Not Available
Date modified: